Location: Albuquerque Trailhead
(34.7934°N, 106.3736°W)
Time: 04:53:46
(UTC+00:00)

Cosmos 1833 Rocket - Pass Details

Date: 20 June 2021
Orbit: 832 x 840 km, 71.0° (Epoch: 29 July)

Event Time Altitude Azimuth Distance (km) Brightness Sun altitude
Exits shadow 11:08:35 10° 229° (SW) 2,443 4.4 -8.4°
Maximum altitude 11:13:46 38° 297° (WNW) 1,266 3.4 -7.5°
Drops below altitude 10° 11:18:59 10° 5° (N) 2,460 5.7 -6.6°
Sets 11:21:37 0° 13° (NNE) 3,398 6.7 -6.2°
